Estación de Polizones INIA

Ultimos registro cada 15 minutos 41
Estación Fecha / Hora Temperatura Humedad Lluvia Velocidad Dirección Radiación Presion
41 Polizones INIA 08-05-2026 10:00 7,1 95,5 0 0,4 140 175 1007
40 Polizones INIA 08-05-2026 09:45 6,9 96,2 0 0,4 131 166 1007
39 Polizones INIA 08-05-2026 09:30 6,7 98 0 0,2 153 115 1007
38 Polizones INIA 08-05-2026 09:15 6,5 98,4 0 0 161 97 1006
37 Polizones INIA 08-05-2026 09:00 6,2 98,3 0 0 0 74 1006
36 Polizones INIA 08-05-2026 08:45 6,1 98,3 0 0 134 32 1006
35 Polizones INIA 08-05-2026 08:30 6 98,2 0,1 0,2 115 15 1006
34 Polizones INIA 08-05-2026 08:15 6 98,2 0 0,2 122 8 1005
33 Polizones INIA 08-05-2026 08:00 5,9 98,2 0 0 105 4 1005
32 Polizones INIA 08-05-2026 07:45 6 97,9 0 0,1 138 1 1005
31 Polizones INIA 08-05-2026 07:30 6 98 0 0 0 0 1005
30 Polizones INIA 08-05-2026 07:15 5,8 98 0 0 0 0 1004
29 Polizones INIA 08-05-2026 07:00 6 97,6 0 0 0 0 1005
28 Polizones INIA 08-05-2026 06:45 6,1 97,6 0,1 0 0 0 1004
27 Polizones INIA 08-05-2026 06:30 6,1 97,7 0 0 0 0 1004
26 Polizones INIA 08-05-2026 06:15 6,2 97,5 0,1 0 0 0 1004
25 Polizones INIA 08-05-2026 06:00 6,1 97,7 0 0 0 0 1004
24 Polizones INIA 08-05-2026 05:45 6,1 97,5 0 0 0 0 1004
23 Polizones INIA 08-05-2026 05:30 6 97,6 0 0 0 0 1003
22 Polizones INIA 08-05-2026 05:15 5,9 97,3 0 0 0 0 1003
21 Polizones INIA 08-05-2026 05:00 5,9 97,2 0 0 0 0 1003
20 Polizones INIA 08-05-2026 04:45 5,8 97,2 0 0 0 0 1003
19 Polizones INIA 08-05-2026 04:30 5,8 97,1 0 0 0 0 1003
18 Polizones INIA 08-05-2026 04:15 5,7 97 0 0 93 0 1003
17 Polizones INIA 08-05-2026 04:00 5,7 96,9 0,1 0,1 28 0 1003
16 Polizones INIA 08-05-2026 03:45 5,7 96,6 0 0 0 0 1003
15 Polizones INIA 08-05-2026 03:30 5,8 96,5 0,1 0 0 0 1003
14 Polizones INIA 08-05-2026 03:15 5,8 96,3 0 0 0 0 1003
13 Polizones INIA 08-05-2026 03:00 0 0 0,1 0 0 0 1004
12 Polizones INIA 08-05-2026 02:45 5,9 95,7 0,1 0 0 0 1003
11 Polizones INIA 08-05-2026 02:30 5,9 95,5 0 0,1 2 0 1003
10 Polizones INIA 08-05-2026 02:15 5,9 95,7 0 0,4 354 0 1003
9 Polizones INIA 08-05-2026 02:00 5,8 95,9 0 0,8 3 0 1003
8 Polizones INIA 08-05-2026 01:45 5,8 96,3 0 1 359 0 1003
7 Polizones INIA 08-05-2026 01:30 5,9 96,3 0 1,3 11 0 1003
6 Polizones INIA 08-05-2026 01:15 5,9 96,3 0 0,9 12 0 1003
5 Polizones INIA 08-05-2026 01:00 5,9 96,3 0 1,1 359 0 1004
4 Polizones INIA 08-05-2026 00:45 5,9 96,3 0 0,7 12 0 1004
3 Polizones INIA 08-05-2026 00:30 5,9 96,3 0,1 0,8 13 0 1004
2 Polizones INIA 08-05-2026 00:15 5,9 96,2 0 0,9 18 0 1004
1 Polizones INIA 08-05-2026 00:00 5,8 96,5 0,1 0,8 357 0 1004